| time (UTC) | temp F | wind direction | speed MPH | gust MPH | rain 1hr in | rain 24hr in | rain mn in | humidity % | barometer mb |
| 20260904112018 | 85 | 193 | 6.0 | 13.0 | 0.00 | 0.00 | 0.00 | 72 | 1021.9 |
| 20260904110024 | 85 | 169 | 6.0 | 13.0 | 0.00 | 0.00 | 0.00 | 73 | 1021.9 |
| 20260904104018 | 84 | 209 | 5.0 | 10.0 | 0.00 | 0.00 | 0.00 | 73 | 1022.0 |
| 20260904103019 | 84 | 188 | 5.0 | 10.0 | 0.00 | 0.00 | 0.00 | 73 | 1022.1 |
| 20260904102025 | 84 | 187 | 4.0 | 10.0 | 0.00 | 0.00 | 0.00 | 73 | 1022.0 |
| 20260904101019 | 83 | 197 | 5.0 | 9.0 | 0.00 | 0.00 | 0.00 | 73 | 1022.1 |
| 20260904100020 | 84 | 173 | 4.0 | 8.0 | 0.00 | 0.00 | 0.00 | 73 | 1022.2 |
| 20260904095021 | 84 | 183 | 4.0 | 9.0 | 0.00 | 0.00 | 0.00 | 73 | 1022.1 |
| 20260904094019 | 83 | 174 | 5.0 | 10.0 | 0.00 | 0.00 | 0.00 | 74 | 1022.1 |
| 20260904093020 | 82 | 192 | 4.0 | 9.0 | 0.00 | 0.00 | 0.00 | 73 | 1022.1 |
| 20260904092018 | 81 | 196 | 5.0 | 10.0 | 0.00 | 0.00 | 0.00 | 74 | 1022.0 |
| 20260904090020 | 80 | 212 | 5.0 | 9.0 | 0.00 | 0.00 | 0.00 | 76 | 1022.0 |
| 20260904085019 | 80 | 192 | 4.0 | 9.0 | 0.00 | 0.00 | 0.00 | 77 | 1021.9 |
| 20260904084017 | 79 | 188 | 4.0 | 8.0 | 0.00 | 0.00 | 0.00 | 77 | 1021.8 |
| 20260904083018 | 78 | 202 | 4.0 | 8.0 | 0.00 | 0.00 | 0.00 | 79 | 1021.8 |
| 20260904082020 | 78 | 203 | 3.0 | 6.0 | 0.00 | 0.00 | 0.00 | 80 | 1021.6 |
| 20260904081019 | 77 | 188 | 4.0 | 8.0 | 0.00 | 0.00 | 0.00 | 81 | 1021.6 |
| 20260904080022 | 77 | 198 | 4.0 | 10.0 | 0.00 | 0.00 | 0.00 | 82 | 1021.7 |
| 20260904075017 | 76 | 209 | 4.0 | 8.0 | 0.00 | 0.00 | 0.00 | 85 | 1021.8 |
| 20260904074019 | 76 | 206 | 3.0 | 7.0 | 0.00 | 0.00 | 0.00 | 86 | 1021.8 |
| 20260904073018 | 76 | 286 | 2.0 | 6.0 | 0.00 | 0.00 | 0.00 | 89 | 1021.7 |
| 20260904071020 | 74 | 284 | 3.0 | 7.0 | 0.00 | 0.00 | 0.00 | 89 | 1021.7 |
| 20260904064018 | 74 | 293 | 2.0 | 6.0 | 0.00 | 0.00 | 0.00 | 90 | 1021.7 |
| 20260904063019 | 74 | 291 | 3.0 | 6.0 | 0.00 | 0.00 | 0.00 | 90 | 1021.7 |
| 20260904062017 | 74 | 277 | 2.0 | 4.0 | 0.00 | 0.00 | 0.00 | 90 | 1021.6 |
| 20260904060018 | 74 | 252 | 1.0 | 4.0 | 0.00 | 0.00 | 0.00 | 90 | 1021.5 |
| 20260904055017 | 74 | 252 | 2.0 | 3.0 | 0.00 | 0.00 | 0.00 | 90 | 1021.4 |
| 20260904054018 | 74 | 253 | 1.0 | 4.0 | 0.00 | 0.00 | 0.00 | 90 | 1021.5 |
| 20260904053018 | 74 | 252 | 1.0 | 5.0 | 0.00 | 0.00 | 0.00 | 90 | 1021.5 |
| 20260904052017 | 74 | 253 | 2.0 | 5.0 | 0.00 | 0.00 | 0.00 | 90 | 1021.4 |
| 20260904051017 | 74 | 282 | 3.0 | 8.0 | 0.00 | 0.00 | 0.00 | 90 | 1021.6 |
| 20260904050025 | 73 | 291 | 2.0 | 4.0 | 0.00 | 0.00 | 0.00 | 90 | 1021.6 |
| 20260904045019 | 73 | 288 | 3.0 | 6.0 | 0.00 | 0.00 | 0.00 | 90 | 1021.6 |
| 20260904044018 | 73 | 299 | 3.0 | 6.0 | 0.00 | 0.00 | 0.00 | 90 | 1021.6 |
| 20260904043017 | 72 | 326 | 3.0 | 5.0 | 0.00 | 0.00 | 0.00 | 90 | 1021.7 |
| 20260904041020 | 72 | 326 | 3.0 | 5.0 | 0.00 | 0.00 | 0.00 | 89 | 1021.7 |
| 20260904040018 | 72 | 326 | 4.0 | 5.0 | 0.00 | 0.00 | 0.00 | 89 | 1021.7 |
| 20260904035018 | 72 | 326 | 3.0 | 5.0 | 0.00 | 0.00 | 0.00 | 88 | 1021.8 |
| 20260904034020 | 72 | 326 | 3.0 | 5.0 | 0.00 | 0.00 | 0.00 | 88 | 1021.8 |
| 20260904033018 | 72 | 326 | 3.0 | 5.0 | 0.00 | 0.00 | 0.00 | 88 | 1021.9 |
| 20260904032018 | 72 | 326 | 3.0 | 5.0 | 0.00 | 0.00 | 0.00 | 88 | 1022.0 |
| 20260904031019 | 72 | 326 | 4.0 | 5.0 | 0.00 | 0.00 | 0.00 | 88 | 1022.0 |
| 20260904030022 | 72 | 326 | 4.0 | 7.0 | 0.00 | 0.00 | 0.00 | 88 | 1022.1 |
| 20260904025017 | 72 | 326 | 4.0 | 7.0 | 0.00 | 0.00 | 0.00 | 88 | 1022.1 |
| 20260904023017 | 72 | 326 | 3.0 | 4.0 | 0.00 | 0.00 | 0.00 | 87 | 1022.4 |
| 20260904022019 | 72 | 326 | 3.0 | 5.0 | 0.00 | 0.00 | 0.00 | 87 | 1022.4 |
| 20260904021017 | 72 | 326 | 3.0 | 5.0 | 0.00 | 0.00 | 0.00 | 87 | 1022.4 |
| 20260904020019 | 72 | 326 | 3.0 | 7.0 | 0.00 | 0.00 | 0.00 | 87 | 1022.5 |
| 20260904015019 | 72 | 326 | 3.0 | 5.0 | 0.00 | 0.00 | 0.00 | 86 | 1022.5 |
| 20260904014017 | 72 | 338 | 4.0 | 7.0 | 0.00 | 0.00 | 0.00 | 86 | 1022.7 |
| 20260904013018 | 72 | 319 | 4.0 | 7.0 | 0.00 | 0.00 | 0.00 | 86 | 1022.7 |
| 20260904012019 | 73 | 318 | 4.0 | 5.0 | 0.00 | 0.00 | 0.00 | 86 | 1022.8 |
| 20260904011019 | 73 | 318 | 3.0 | 5.0 | 0.00 | 0.00 | 0.00 | 86 | 1023.1 |
| 20260904010018 | 73 | 319 | 4.0 | 7.0 | 0.00 | 0.00 | 0.00 | 86 | 1023.0 |
| 20260904005017 | 73 | 319 | 3.0 | 7.0 | 0.00 | 0.00 | 0.00 | 86 | 1023.1 |
| 20260904004017 | 73 | 318 | 4.0 | 7.0 | 0.00 | 0.00 | 0.00 | 86 | 1023.2 |
| 20260904003017 | 73 | 319 | 4.0 | 7.0 | 0.00 | 0.00 | 0.00 | 86 | 1023.4 |
| 20260904002017 | 73 | 319 | 4.0 | 7.0 | 0.00 | 0.00 | 0.00 | 86 | 1023.3 |
| 20260904001017 | 73 | 324 | 4.0 | 6.0 | 0.00 | 0.00 | 0.00 | 86 | 1023.5 |
| 20260904000025 | 73 | 335 | 4.0 | 8.0 | 0.00 | 0.00 | 0.00 | 86 | 1023.4 |
| 20260903235017 | 73 | 348 | 2.0 | 4.0 | 0.00 | 0.00 | 0.00 | 86 | 1023.6 |
| 20260903234017 | 73 | 348 | 3.0 | 5.0 | 0.00 | 0.00 | 0.00 | 86 | 1023.6 |
| 20260903233017 | 73 | 349 | 2.0 | 3.0 | 0.00 | 0.00 | 0.00 | 86 | 1023.6 |
| 20260903232017 | 74 | 349 | 2.0 | 4.0 | 0.00 | 0.00 | 0.00 | 86 | 1023.6 |
| 20260903230017 | 74 | 348 | 1.0 | 3.0 | 0.00 | 0.00 | 0.00 | 86 | 1023.6 |
| 20260903224018 | 74 | 348 | 2.0 | 4.0 | 0.00 | 0.00 | 0.00 | 86 | 1023.6 |
| 20260903223017 | 74 | 348 | 2.0 | 3.0 | 0.00 | 0.00 | 0.00 | 86 | 1023.6 |
| 20260903221020 | 74 | 303 | 2.0 | 4.0 | 0.00 | 0.00 | 0.00 | 85 | 1023.5 |
| 20260903220019 | 74 | 220 | 2.0 | 4.0 | 0.00 | 0.00 | 0.00 | 85 | 1023.6 |
| 20260903215017 | 74 | 220 | 2.0 | 4.0 | 0.00 | 0.00 | 0.00 | 85 | 1023.5 |
| 20260903214022 | 74 | 220 | 2.0 | 3.0 | 0.00 | 0.00 | 0.00 | 85 | 1023.5 |
| 20260903213017 | 75 | 219 | 1.0 | 2.0 | 0.00 | 0.00 | 0.00 | 85 | 1023.6 |
| 20260903211018 | 74 | 219 | 1.0 | 3.0 | 0.00 | 0.00 | 0.00 | 85 | 1023.7 |
| 20260903210018 | 75 | 219 | 1.0 | 3.0 | 0.00 | 0.00 | 0.00 | 84 | 1023.6 |
| 20260903205018 | 75 | 219 | 0.0 | 2.0 | 0.00 | 0.00 | 0.00 | 84 | 1023.6 |
| 20260903203019 | 75 | 219 | 1.0 | 2.0 | 0.00 | 0.00 | 0.00 | 84 | 1023.4 |
| 20260903202018 | 76 | 219 | 1.0 | 3.0 | 0.00 | 0.00 | 0.00 | 83 | 1023.4 |
| 20260903201017 | 76 | 217 | 1.0 | 4.0 | 0.00 | 0.00 | 0.00 | 84 | 1023.3 |
| 20260903200017 | 76 | 235 | 2.0 | 4.0 | 0.00 | 0.00 | 0.00 | 83 | 1023.2 |
| 20260903195017 | 76 | 246 | 3.0 | 6.0 | 0.00 | 0.00 | 0.00 | 83 | 1023.0 |
| 20260903194026 | 76 | 249 | 3.0 | 7.0 | 0.00 | 0.00 | 0.00 | 83 | 1023.0 |
| 20260903192019 | 76 | 244 | 4.0 | 7.0 | 0.00 | 0.00 | 0.00 | 82 | 1022.8 |
| 20260903191018 | 76 | 251 | 3.0 | 7.0 | 0.00 | 0.00 | 0.00 | 82 | 1022.7 |
| 20260903190018 | 77 | 243 | 4.0 | 7.0 | 0.00 | 0.00 | 0.00 | 82 | 1022.6 |
| 20260903185017 | 77 | 244 | 5.0 | 10.0 | 0.00 | 0.00 | 0.00 | 81 | 1022.6 |
| 20260903184017 | 77 | 243 | 4.0 | 8.0 | 0.00 | 0.00 | 0.00 | 81 | 1022.5 |
| 20260903183016 | 77 | 233 | 4.0 | 10.0 | 0.00 | 0.00 | 0.00 | 80 | 1022.5 |
| 20260903182016 | 78 | 234 | 5.0 | 9.0 | 0.00 | 0.00 | 0.00 | 80 | 1022.5 |
| 20260903181017 | 78 | 225 | 5.0 | 10.0 | 0.00 | 0.00 | 0.00 | 80 | 1022.6 |
| 20260903175016 | 79 | 221 | 6.0 | 10.0 | 0.00 | 0.00 | 0.00 | 79 | 1022.7 |
| 20260903173016 | 80 | 216 | 5.0 | 9.0 | 0.00 | 0.00 | 0.00 | 79 | 1022.7 |
| 20260903172016 | 80 | 216 | 5.0 | 10.0 | 0.00 | 0.00 | 0.00 | 78 | 1022.6 |
| 20260903164018 | 81 | 200 | 7.0 | 14.0 | 0.00 | 0.00 | 0.00 | 77 | 1022.7 |
| 20260903161016 | 81 | 197 | 6.0 | 12.0 | 0.00 | 0.00 | 0.00 | 77 | 1022.7 |
| 20260903160018 | 81 | 216 | 6.0 | 11.0 | 0.00 | 0.00 | 0.00 | 76 | 1022.8 |
| 20260903155017 | 82 | 196 | 6.0 | 12.0 | 0.00 | 0.00 | 0.00 | 74 | 1023.0 |
| 20260903154016 | 82 | 212 | 5.0 | 11.0 | 0.00 | 0.00 | 0.00 | 75 | 1022.9 |
| 20260903153016 | 82 | 222 | 5.0 | 11.0 | 0.00 | 0.00 | 0.00 | 74 | 1023.0 |
| 20260903152016 | 82 | 229 | 6.0 | 10.0 | 0.00 | 0.00 | 0.00 | 75 | 1023.1 |
| 20260903150018 | 83 | 216 | 6.0 | 12.0 | 0.00 | 0.00 | 0.00 | 75 | 1023.1 |
| 20260903145018 | 83 | 199 | 7.0 | 13.0 | 0.00 | 0.00 | 0.00 | 74 | 1023.1 |
| 20260903144017 | 83 | 198 | 7.0 | 12.0 | 0.00 | 0.00 | 0.00 | 73 | 1023.1 |
| 20260903143017 | 83 | 192 | 7.0 | 14.0 | 0.00 | 0.00 | 0.00 | 71 | 1023.2 |
| 20260903141017 | 83 | 184 | 8.0 | 14.0 | 0.00 | 0.00 | 0.00 | 71 | 1023.1 |
| 20260903140018 | 84 | 199 | 8.0 | 16.0 | 0.00 | 0.00 | 0.00 | 71 | 1023.0 |
| 20260903134021 | 83 | 185 | 8.0 | 12.0 | 0.00 | 0.00 | 0.00 | 70 | 1023.1 |
| 20260903133018 | 83 | 206 | 7.0 | 17.0 | 0.00 | 0.00 | 0.00 | 71 | 1023.2 |
| 20260903132018 | 84 | 199 | 7.0 | 15.0 | 0.00 | 0.00 | 0.00 | 69 | 1023.3 |
| 20260903131017 | 83 | 191 | 7.0 | 14.0 | 0.00 | 0.00 | 0.00 | 70 | 1023.4 |
| 20260903130019 | 83 | 181 | 8.0 | 15.0 | 0.00 | 0.00 | 0.00 | 70 | 1023.4 |
| 20260903125016 | 84 | 189 | 8.0 | 17.0 | 0.00 | 0.00 | 0.00 | 72 | 1023.4 |
| 20260903124018 | 84 | 198 | 6.0 | 12.0 | 0.00 | 0.00 | 0.00 | 70 | 1023.5 |
| 20260903123016 | 84 | 200 | 6.0 | 12.0 | 0.00 | 0.00 | 0.00 | 70 | 1023.5 |
| 20260903122018 | 84 | 203 | 4.0 | 10.0 | 0.00 | 0.00 | 0.00 | 71 | 1023.4 |
| 20260903120019 | 84 | 173 | 6.0 | 11.0 | 0.00 | 0.00 | 0.00 | 72 | 1023.5 |
| 20260903115017 | 83 | 162 | 6.0 | 12.0 | 0.00 | 0.00 | 0.00 | 73 | 1023.7 |
| 20260903114022 | 83 | 174 | 7.0 | 13.0 | 0.00 | 0.00 | 0.00 | 73 | 1023.7 |
| 20260903113016 | 83 | 166 | 7.0 | 12.0 | 0.00 | 0.00 | 0.00 | 72 | 1023.7 |